#timestamp,LO_Frequency,Hit,StdDev 
1543366815.7,286046999.0,N
1543366835.5,286047001.2,N
1543366855.4,286046998.2,N
1543366875.2,286046998.2,N
1543366895.1,286046998.3,N
1543366896.0,286046998.3,N
1543366915.8,286046998.4,N
1543366935.6,286047000.7,N
1543366955.5,286046999.8,N
1543366975.3,286047000.9,N
1543366995.1,286047000.6,N
1543367015.9,286047002.5,N
1543367035.7,286047002.5,N
1543367055.6,286047002.7,N
1543367075.4,286047002.4,N
1543367095.2,286047002.2,N
1543367115.1,286047002.8,N
1543367116.0,286047002.8,N
1543367135.8,286047002.3,N
1543367155.7,286046999.7,N
1543367175.5,286047000.0,N
1543367195.3,286047002.5,N
1543367215.2,286047001.9,N
1543367235.0,286047002.0,N
1543367235.9,286047002.0,N
1543367255.7,286047002.1,N
1543367275.6,286047001.9,N
1543367295.4,286047000.1,N
1543367315.3,286047000.5,N
1543367335.1,286046998.6,N
1543367336.0,286046998.6,N
1543367355.8,286046999.1,N
1543367375.7,286046998.9,N
1543367395.5,286046996.9,N
1543367415.3,286046996.7,N
1543367435.2,286046998.1,N
1543367455.0,286046999.0,N
1543367455.9,286046999.0,N
1543367475.8,286047000.7,N
1543367495.6,286047000.8,N
1543367515.4,286047002.3,N
1543367535.3,286047000.8,N
1543367555.1,286047000.8,N
1543367575.9,286047001.2,N
1543367595.7,286047000.5,N
1543367615.5,286047000.7,N
1543367635.4,286047001.2,N
1543367655.2,286046998.1,N
1543367675.0,286047002.8,N
1543367675.9,286047002.8,N
1543367695.8,286046998.2,N
1543367715.6,286046997.0,N
1543367735.5,286046996.7,N
1543367755.3,286046997.5,N
1543367775.1,286046997.5,N
1543367795.9,286046997.5,N
1543367815.7,286046994.9,N
1543367835.6,286046995.4,N
1543367855.4,286046996.0,N
1543367875.2,286046996.3,N
1543367895.1,286046996.0,N
1543367896.0,286046996.0,N
1543367915.8,286046995.5,N
1543367935.6,286046995.5,N
1543367955.5,286046997.9,N
1543367975.3,286046995.8,N
1543367995.2,286046996.4,N
1543368015.9,286046994.5,N
1543368035.7,286046993.7,N
1543368055.6,286046994.0,N
1543368075.4,286046994.1,N
1543368095.2,286046996.1,N
1543368115.1,286046995.6,N
1543368116.0,286046995.6,N
1543368135.8,286046995.8,N
1543368155.7,286046994.0,N
1543368175.5,286046994.0,N
1543368195.3,286046996.3,N
1543368215.2,286046995.9,N
1543368235.0,286046996.4,N
1543368235.9,286046996.4,Y
1543368255.8,286046998.8,P
1543368275.6,286046998.2,N
1543368295.4,286046998.4,N
1543368315.3,286046996.7,N
1543368335.1,286046998.0,N
1543368355.9,286046995.1,Y
1543368375.7,286046999.1,P
1543368395.5,286046999.5,N
1543368415.4,286046998.2,N
1543368435.2,286047001.2,N
1543368455.0,286046999.9,N
1543368456.0,286046999.9,N
1543368475.8,286046999.3,N
1543368495.6,286046998.5,N
1543368515.5,286046999.3,N
1543368535.3,286046999.0,N
1543368555.1,286046999.1,N
1543368575.9,286046999.2,N
1543368595.7,286046998.8,N
1543368615.6,286046999.6,N
1543368635.4,286046999.1,N
1543368655.2,286046997.2,Y
1543368675.1,286046999.6,P
1543368676.0,286046999.6,N
1543368695.8,286046996.7,P
1543368715.6,286046997.0,N
1543368735.5,286046999.6,N
1543368755.3,286046995.4,Y
1543368775.2,286046997.6,P
1543368795.9,286046998.8,N
1543368815.7,286047000.5,N
1543368835.6,286047000.9,N
1543368855.4,286047000.0,N
1543368875.2,286047000.6,N
1543368895.1,286046998.3,N
1543368896.0,286046998.3,N
1543368915.8,286046999.4,N
1543368935.7,286046999.3,N
1543368955.5,286046999.6,N
1543368975.3,286046996.7,Y
1543368995.2,286046999.4,P
1543369015.0,286047001.2,P
1543369015.9,286047001.2,N
1543369035.8,286047000.6,N
1543369055.6,286046999.0,N
1543369075.4,286046999.2,N
1543369095.3,286046998.7,N
1543369115.1,286046999.5,N
1543369135.8,286046999.6,N
1543369155.7,286046997.9,N
1543369175.5,286046996.9,Y
1543369195.4,286046998.8,P
1543369215.2,286046998.9,N
1543369235.0,286046998.2,P
1543369235.9,286046998.2,Y
1543369255.8,286047000.3,P
1543369275.6,286046999.9,N
1543369295.5,286047001.6,N
1543369315.3,286047000.2,N
1543369335.1,286047000.2,N
1543369355.9,286047000.2,N
1543369375.7,286047000.0,N
1543369395.5,286047011.9,Y
1543369415.4,286046997.8,P
1543369435.2,286046996.6,N
1543369455.1,286046996.7,N
1543369456.0,286046996.7,N
1543369475.8,286046996.9,N
1543369495.6,286046998.2,N
1543369515.5,286046997.2,N
1543369535.3,286046999.1,N
1543369555.1,286046996.5,Y
1543369575.9,286046999.5,P
1543369595.7,286047000.7,N
1543369615.6,286046998.2,N
1543369635.4,286047002.7,N
1543369655.2,286047004.3,N
1543369675.1,286047000.1,N
1543369676.0,286047000.1,N
1543369695.8,286047002.4,N
1543369715.7,286047002.5,N
1543369735.5,286047001.5,N
1543369755.3,286047004.0,N
1543369775.2,286047003.9,N
1543369795.9,286047003.7,N
1543369815.7,286047003.6,N
1543369835.6,286047005.8,N
1543369855.4,286047005.6,N
1543369875.3,286047005.0,N
1543369895.1,286047005.7,N
1543369896.0,286047005.7,N
1543369915.8,286047007.6,Y
1543369935.7,286047003.5,P
1543369955.5,286047002.1,P
1543369975.3,286047001.5,N
1543369995.2,286047001.4,N
1543370015.0,286047004.4,Y
1543370015.9,286047004.4,P
1543370035.8,286046999.9,N
1543370055.6,286047000.5,N
1543370075.4,286047000.5,N
1543370095.3,286046999.8,N
1543370145.1,286047000.2,E
1543370155.1,286047001.5,N
1543370156.0,286047001.5,P
1543370175.8,286047004.3,P
1543370195.6,286047004.3,Y
1543370215.5,286047002.2,P
1543370235.3,286047002.7,P
1543370255.1,286047002.7,P
1543370275.9,286046999.8,N
1543370295.7,286047002.8,N
1543370315.6,286047001.5,N
1543370335.4,286047002.1,N
1543370355.2,286047002.2,N
1543370375.1,286047001.8,N
1543370376.0,286047001.8,N
1543370395.8,286047002.0,N
